When you browse on this site, cookies collect data to enhance your experience and personalize the content and advertising you see.
Visit our Privacy Policy to learn more. By continuing to use the site, you agree to this use of cookies and data.
  • In Hungary
  • List of Countries
  • For 7 days
  • Water Temperature
  • Satellite Maps
  • Weather Map
  • News
  • Weather Widgets
  • user-avatar
    Login

    Hourly Weather Starye Kargaly

    Today, 19 November, Monday

    Time Temperature Precipitation Wind Pressure Humidity
    00:00 -3°C° 0.1 mm 2 mps 756 mmHg 80%
    01:00 -3°C° 0.1 mm 2 mps 756 mmHg 82%
    02:00 -3°C° 0.1 mm 2 mps 756 mmHg 84%
    03:00 -3°C° 0.1 mm 2 mps 756 mmHg 86%
    04:00 -3°C° 0 mm 2 mps 756 mmHg 86%
    05:00 -3°C° 0 mm 2 mps 756 mmHg 87%
    06:00 -2°C° 0 mm 2 mps 756 mmHg 88%
    07:00 -2°C° 0 mm 2 mps 757 mmHg 89%
    08:00 -2°C° 0.1 mm 2 mps 757 mmHg 89%
    09:00 -2°C° 0.1 mm 2 mps 757 mmHg 89%
    10:00 -2°C° 0.1 mm 2 mps 757 mmHg 89%
    11:00 -2°C° 0.1 mm 2 mps 757 mmHg 89%
    12:00 -2°C° 0.1 mm 2 mps 757 mmHg 89%
    13:00 -1°C° 0.1 mm 2 mps 757 mmHg 89%
    14:00 -1°C° 0.2 mm 2 mps 757 mmHg 91%
    15:00 -2°C° 0.2 mm 2 mps 757 mmHg 93%
    16:00 -2°C° 0.2 mm 2 mps 757 mmHg 95%
    17:00 -2°C° 0.2 mm 2 mps 757 mmHg 95%
    18:00 0°C° 0.2 mm 1 mps 757 mmHg 96%
    19:00 0°C° 0.2 mm 1 mps 757 mmHg 96%
    20:00 0°C° 0.2 mm 1 mps 757 mmHg 97%
    21:00 0°C° 0.2 mm 1 mps 757 mmHg 97%
    22:00 0°C° 0.2 mm 1 mps 757 mmHg 97%
    23:00 0°C° 0.2 mm 1 mps 757 mmHg 97%

    Tomorrow, 20 November, Tuesday

    Time Temperature Precipitation Wind Pressure Humidity
    00:00 0°C° 0.2 mm 1 mps 756 mmHg 97%
    01:00 0°C° 0.2 mm 1 mps 756 mmHg 97%
    02:00 0°C° 0.2 mm 1 mps 756 mmHg 96%
    03:00 0°C° 0.2 mm 1 mps 756 mmHg 96%
    04:00 0°C° 0.2 mm 1 mps 756 mmHg 96%
    05:00 -1°C° 0.1 mm 1 mps 756 mmHg 96%
    06:00 -1°C° 0.1 mm 1 mps 756 mmHg 96%
    07:00 -1°C° 0.1 mm 1 mps 756 mmHg 96%
    08:00 -1°C° 0.1 mm 1 mps 756 mmHg 95%
    09:00 0°C° 0.1 mm 1 mps 756 mmHg 94%
    10:00 0°C° 0.1 mm 1 mps 756 mmHg 94%
    11:00 0°C° 0 mm 1 mps 755 mmHg 93%
    12:00 0°C° 0 mm 1 mps 755 mmHg 92%
    13:00 0°C° 0 mm 1 mps 755 mmHg 91%
    14:00 0°C° 0 mm 1 mps 755 mmHg 92%
    15:00 0°C° 0 mm 1 mps 754 mmHg 93%
    16:00 0°C° 0 mm 1 mps 754 mmHg 94%
    17:00 0°C° 0 mm 1 mps 754 mmHg 95%
    18:00 0°C° 0 mm 1 mps 753 mmHg 95%
    19:00 -3°C° 0 mm 2 mps 753 mmHg 95%
    20:00 -3°C° 0 mm 2 mps 753 mmHg 94%
    21:00 -3°C° 0 mm 2 mps 752 mmHg 93%
    22:00 -4°C° 0 mm 3 mps 752 mmHg 92%
    23:00 -4°C° 0 mm 3 mps 751 mmHg 91%

    Day after tomorrow, 21 November, Wednesday

    Time Temperature Precipitation Wind Pressure Humidity
    00:00 -4°C° 0 mm 4 mps 751 mmHg 90%
    01:00 -5°C° 0 mm 4 mps 751 mmHg 89%
    02:00 -5°C° 0 mm 4 mps 750 mmHg 88%
    03:00 -6°C° 0 mm 5 mps 749 mmHg 87%
    04:00 -6°C° 0 mm 5 mps 749 mmHg 86%
    05:00 -7°C° 0.1 mm 5 mps 748 mmHg 86%
    06:00 -7°C° 0.1 mm 5 mps 747 mmHg 87%
    07:00 -7°C° 0.1 mm 5 mps 747 mmHg 88%
    08:00 -8°C° 0.3 mm 6 mps 746 mmHg 89%
    09:00 -8°C° 0.3 mm 6 mps 745 mmHg 90%
    10:00 -8°C° 0.3 mm 6 mps 745 mmHg 91%
    11:00 -6°C° 0.5 mm 6 mps 744 mmHg 91%
    12:00 -6°C° 0.5 mm 6 mps 743 mmHg 91%
    13:00 -6°C° 0.5 mm 6 mps 743 mmHg 91%
    14:00 -6°C° 0.4 mm 5 mps 742 mmHg 91%
    15:00 -6°C° 0.4 mm 5 mps 742 mmHg 91%
    16:00 -6°C° 0.4 mm 5 mps 741 mmHg 92%
    17:00 -6°C° 0.2 mm 5 mps 741 mmHg 90%
    18:00 -6°C° 0.2 mm 5 mps 741 mmHg 88%
    19:00 -6°C° 0.2 mm 6 mps 741 mmHg 86%
    20:00 -6°C° 0.1 mm 6 mps 742 mmHg 84%
    21:00 -7°C° 0.1 mm 5 mps 742 mmHg 83%
    22:00 -8°C° 0.1 mm 5 mps 742 mmHg 81%
    23:00 -9°C° 0 mm 4 mps 743 mmHg 83%

    22 November, Thursday

    Time Temperature Precipitation Wind Pressure Humidity
    00:00 -10°C° 0 mm 4 mps 743 mmHg 85%
    01:00 -10°C° 0 mm 3 mps 743 mmHg 87%
    02:00 -10°C° 0 mm 3 mps 743 mmHg 88%
    03:00 -10°C° 0 mm 3 mps 743 mmHg 89%
    04:00 -9°C° 0 mm 3 mps 743 mmHg 91%
    05:00 -11°C° 0 mm 4 mps 743 mmHg 91%
    06:00 -11°C° 0 mm 4 mps 742 mmHg 91%
    07:00 -11°C° 0 mm 4 mps 742 mmHg 92%
    08:00 -12°C° 0.1 mm 5 mps 741 mmHg 91%
    09:00 -11°C° 0.1 mm 5 mps 741 mmHg 91%
    10:00 -11°C° 0.1 mm 6 mps 740 mmHg 90%
    11:00 -10°C° 0.2 mm 6 mps 739 mmHg 90%
    12:00 -10°C° 0.2 mm 6 mps 739 mmHg 90%
    13:00 -9°C° 0.2 mm 7 mps 738 mmHg 89%
    14:00 -9°C° 0.4 mm 7 mps 737 mmHg 90%
    15:00 -9°C° 0.4 mm 7 mps 737 mmHg 90%
    16:00 -8°C° 0.4 mm 7 mps 736 mmHg 90%
    17:00 -8°C° 0.2 mm 6 mps 736 mmHg 90%
    18:00 -8°C° 0.2 mm 6 mps 736 mmHg 89%
    19:00 -9°C° 0.2 mm 6 mps 736 mmHg 89%
    20:00 -10°C° 0.1 mm 6 mps 736 mmHg 86%
    21:00 -11°C° 0.1 mm 6 mps 737 mmHg 82%
    22:00 -14°C° 0.1 mm 6 mps 737 mmHg 79%
    23:00 -13°C° 0 mm 5 mps 738 mmHg 78%

    23 November, Friday

    Time Temperature Precipitation Wind Pressure Humidity
    00:00 -14°C° 0 mm 5 mps 739 mmHg 77%
    01:00 -15°C° 0 mm 5 mps 739 mmHg 76%
    02:00 -17°C° 0 mm 5 mps 740 mmHg 78%
    03:00 -16°C° 0 mm 4 mps 741 mmHg 80%
    04:00 -17°C° 0 mm 4 mps 742 mmHg 82%
    05:00 -17°C° 0 mm 4 mps 743 mmHg 84%
    06:00 -17°C° 0 mm 3 mps 743 mmHg 85%
    07:00 -17°C° 0 mm 3 mps 744 mmHg 87%
    08:00 -17°C° 0 mm 3 mps 744 mmHg 88%
    09:00 -16°C° 0 mm 2 mps 744 mmHg 89%
    10:00 -15°C° 0 mm 2 mps 745 mmHg 90%
    11:00 -14°C° 0 mm 2 mps 745 mmHg 90%
    12:00 -13°C° 0 mm 2 mps 745 mmHg 90%
    13:00 -12°C° 0 mm 2 mps 746 mmHg 89%
    14:00 -12°C° 0.1 mm 2 mps 746 mmHg 91%
    15:00 -12°C° 0.1 mm 2 mps 746 mmHg 92%
    16:00 -10°C° 0.1 mm 2 mps 747 mmHg 93%
    17:00 -12°C° 0.1 mm 3 mps 747 mmHg 91%
    18:00 -12°C° 0.1 mm 4 mps 748 mmHg 89%
    19:00 -14°C° 0.1 mm 5 mps 748 mmHg 87%
    20:00 -15°C° 0 mm 4 mps 749 mmHg 87%
    21:00 -16°C° 0 mm 4 mps 750 mmHg 87%
    22:00 -17°C° 0 mm 4 mps 750 mmHg 87%
    23:00 -16°C° 0 mm 3 mps 750 mmHg 88%

    24 November, Saturday

    Time Temperature Precipitation Wind Pressure Humidity
    00:00 -17°C° 0 mm 3 mps 751 mmHg 89%
    01:00 -17°C° 0 mm 3 mps 751 mmHg 90%
    02:00 -16°C° 0 mm 3 mps 751 mmHg 91%
    03:00 -16°C° 0 mm 4 mps 751 mmHg 92%
    04:00 -15°C° 0 mm 4 mps 751 mmHg 93%
    05:00 -14°C° 0.1 mm 5 mps 751 mmHg 93%
    06:00 -13°C° 0.1 mm 5 mps 750 mmHg 92%
    07:00 -12°C° 0.1 mm 6 mps 750 mmHg 91%
    08:00 -12°C° 0.2 mm 7 mps 749 mmHg 90%
    09:00 -12°C° 0.2 mm 7 mps 749 mmHg 89%
    10:00 -11°C° 0.2 mm 8 mps 748 mmHg 89%
    11:00 -10°C° 0.2 mm 8 mps 748 mmHg 88%
    12:00 -10°C° 0.2 mm 9 mps 747 mmHg 87%
    13:00 -10°C° 0.2 mm 9 mps 746 mmHg 86%
    14:00 -9°C° 0.2 mm 9 mps 746 mmHg 86%
    15:00 -9°C° 0.2 mm 9 mps 746 mmHg 86%
    16:00 -9°C° 0.2 mm 9 mps 745 mmHg 85%
    17:00 -9°C° 0.1 mm 9 mps 745 mmHg 85%
    18:00 -9°C° 0.1 mm 9 mps 745 mmHg 85%
    19:00 -9°C° 0.1 mm 9 mps 745 mmHg 84%
    20:00 -8°C° 0.2 mm 9 mps 745 mmHg 85%
    21:00 -8°C° 0.2 mm 9 mps 745 mmHg 86%
    22:00 -8°C° 0.2 mm 9 mps 745 mmHg 86%
    23:00 -7°C° 0.1 mm 8 mps 745 mmHg 86%
    Show more